Location: Newark
(7.0858°N, 171.3717°E)
Time: 15:54:54
(UTC+00:00)

Courier 1B Rocket - Pass Details

Date: 01 December 2020
Orbit: 920 x 1202 km, 28.2° (Epoch: 20 January)

Event Time Altitude Azimuth Distance (km) Brightness Sun altitude
Rises 21:45:30 0° 312° (NW) 4,051 7.8 41.5°
Reaches altitude 10° 21:48:53 10° 324° (NW) 3,058 7.3 42.2°
Maximum altitude 21:55:09 28° 20° (NNE) 1,970 6.7 43.4°
Drops below altitude 10° 22:01:05 10° 76° (ENE) 2,898 8.0 44.5°
Sets 22:04:11 0° 88° (E) 3,804 8.6 45.1°
